Location: Newark
(37.9800°N, 91.3000°W)
Time: 17:41:33
(UTC+00:00)

Envisat - Visible Passes

Search period start: 21 October 2019 00:00
Search period end: 31 October 2019 00:00
Orbit: 764 x 766 km, 98.1° (Epoch: 21 October)

Date Brightness Start Highest point End Pass type
(mag) Time Alt. Az. Time Alt. Az. Time Alt. Az.
21 Oct 3.0 00:09:57 10° SSE 00:15:01 85° ENE 00:20:08 10° NNW visible
22 Oct 5.4 01:13:30 10° SSW 01:17:29 23° W 01:21:29 10° NW visible
22 Oct 6.3 11:45:44 10° ENE 11:48:29 15° E 11:51:14 10° SE visible
23 Oct 3.8 00:35:36 10° S 00:40:32 53° W 00:45:31 10° NNW visible
23 Oct 3.0 23:58:45 10° SSE 00:03:47 67° ENE 00:08:50 10° N visible
24 Oct 6.1 01:41:07 10° WSW 01:43:14 12° W 01:45:21 10° WNW visible
25 Oct 5.0 01:01:45 10° SSW 01:06:08 29° W 01:10:33 10° NW visible
25 Oct 6.7 11:35:45 10° ENE 11:37:06 11° E 11:38:28 10° ESE visible
26 Oct 3.3 00:24:13 10° S 00:29:15 68° WSW 00:34:20 10° NNW visible
26 Oct 3.1 23:47:39 10° SSE 23:52:33 52° ENE 23:57:28 10° N visible
27 Oct 5.8 01:28:43 10° SW 01:31:51 16° W 01:34:59 10° NW visible
28 Oct 4.5 00:50:09 10° SSW 00:54:49 37° W 00:59:32 10° NNW visible
29 Oct 3.0 00:12:54 10° SSE 00:17:59 87° WSW 00:23:05 10° NNW visible
29 Oct 3.4 23:36:37 10° SE 23:41:21 41° ENE 23:46:04 10° N visible
30 Oct 5.5 01:16:42 10° SW 01:20:29 21° W 01:24:17 10° NW visible
30 Oct 6.1 11:48:24 10° NE 11:51:30 16° E 11:54:35 10° SE visible
